FLOCK 4S-36 (47530 NORAD) Tracking and Keplerian Element Data

This shows tracking and keplerian element data for the satellite.

Feedback or suggestion? Click here.




ElementValue
Catalog47530
NameFLOCK 4S-36
Epoch Orbit1294
Epoch Day101.91050156
Epoch Year2021
RAAN164.2556
Inclination97.5014
Eccentricity0.0007565
Argument of Perigee353.5174
Mean Anonmoly6.5958
Mean Motion15.11911702
Decay Rate2.252E-05
L11 47530U 21006DW 21101.91050156 .00002252 00000-0 13518-3 0 9992
L22 47530 97.5014 164.2556 0007565 353.5174 6.5958 15.11911702 12944

Live tracking and technical data element details for FLOCK 4S-36 (NORAD 47530). FLOCK 4S-36 can be tracked NOW for your location showing map with azimuth and elevation plus other details from your city location.

Track the satellite on the map from your city or location and see movement details for azimuth, elevation, latitude, longitude, range, height, and movement on the map or in text.







IsCatalogInMostPopularTable: catalog: 47530, numindb: 17
Update: records affected: 1



GetName: 47530 FLOCK 4S-36

Hit Count: updated at: Tue, 13 Apr 2021 05:22:10 GMT